When you browse on this site, cookies collect data to enhance your experience and personalize the content and advertising you see.
Visit our Privacy Policy to learn more. By continuing to use the site, you agree to this use of cookies and data.
EN

Hourly Weather Hajdarabad

Today, 7 July, Tuesday

Time Temperature Precipitation Wind Pressure Humidity
00:00 +36°C° 0 mm 5 mps 744 mmHg 53%
01:00 +35°C° 0 mm 5 mps 744 mmHg 60%
02:00 +34°C° 0 mm 6 mps 744 mmHg 66%
03:00 +34°C° 0 mm 6 mps 744 mmHg 67%
04:00 +34°C° 0 mm 6 mps 744 mmHg 68%
05:00 +35°C° 0 mm 3 mps 743 mmHg 70%
06:00 +36°C° 0 mm 4 mps 744 mmHg 63%
07:00 +37°C° 0 mm 4 mps 744 mmHg 57%
08:00 +38°C° 0 mm 4 mps 744 mmHg 51%
09:00 +40°C° 0 mm 4 mps 744 mmHg 44%
10:00 +40°C° 0 mm 3 mps 744 mmHg 36%
11:00 +44°C° 0 mm 3 mps 744 mmHg 25%
12:00 +43°C° 0.1 mm 3 mps 744 mmHg 27%
13:00 +43°C° 0.1 mm 4 mps 743 mmHg 28%
14:00 +43°C° 0.1 mm 4 mps 743 mmHg 30%
15:00 +42°C° 0 mm 3 mps 743 mmHg 30%
16:00 +41°C° 0 mm 2 mps 742 mmHg 31%
17:00 +42°C° 0 mm 3 mps 742 mmHg 29%
18:00 +40°C° 0 mm 3 mps 743 mmHg 31%
19:00 +40°C° 0 mm 3 mps 743 mmHg 33%
20:00 +41°C° 0 mm 4 mps 743 mmHg 35%
21:00 +40°C° 0 mm 4 mps 744 mmHg 42%
22:00 +39°C° 0 mm 5 mps 744 mmHg 49%
23:00 +37°C° 0 mm 5 mps 745 mmHg 56%

Tomorrow, 8 July, Wednesday

Time Temperature Precipitation Wind Pressure Humidity
00:00 +36°C° 0 mm 4 mps 744 mmHg 56%
01:00 +36°C° 0 mm 3 mps 744 mmHg 55%
02:00 +36°C° 0 mm 2 mps 744 mmHg 55%
03:00 +36°C° 0 mm 2 mps 744 mmHg 55%
04:00 +36°C° 0 mm 2 mps 744 mmHg 55%
05:00 +36°C° 0 mm 2 mps 744 mmHg 56%
06:00 +36°C° 0 mm 3 mps 744 mmHg 55%
07:00 +36°C° 0 mm 4 mps 745 mmHg 55%
08:00 +37°C° 0 mm 5 mps 745 mmHg 55%
09:00 +39°C° 0 mm 5 mps 745 mmHg 51%
10:00 +40°C° 0 mm 6 mps 745 mmHg 46%
11:00 +41°C° 0 mm 6 mps 745 mmHg 42%
12:00 +44°C° 0 mm 7 mps 745 mmHg 37%
13:00 +45°C° 0 mm 8 mps 744 mmHg 33%
14:00 +48°C° 0 mm 8 mps 743 mmHg 29%
15:00 +47°C° 0 mm 9 mps 743 mmHg 31%
16:00 +45°C° 0 mm 9 mps 743 mmHg 33%
17:00 +44°C° 0 mm 9 mps 743 mmHg 36%
18:00 +43°C° 0 mm 8 mps 744 mmHg 39%
19:00 +41°C° 0 mm 8 mps 744 mmHg 43%
20:00 +40°C° 0 mm 7 mps 744 mmHg 46%
21:00 +38°C° 0 mm 7 mps 745 mmHg 50%
22:00 +36°C° 0 mm 7 mps 745 mmHg 54%
23:00 +35°C° 0 mm 7 mps 745 mmHg 57%

Day after tomorrow, 9 July, Thursday

Time Temperature Precipitation Wind Pressure Humidity
00:00 +35°C° 0 mm 7 mps 745 mmHg 61%
01:00 +34°C° 0 mm 7 mps 745 mmHg 65%
02:00 +34°C° 0 mm 6 mps 745 mmHg 69%
03:00 +33°C° 0 mm 6 mps 745 mmHg 71%
04:00 +33°C° 0 mm 5 mps 744 mmHg 72%
05:00 +33°C° 0 mm 4 mps 744 mmHg 74%
06:00 +33°C° 0 mm 4 mps 745 mmHg 72%
07:00 +34°C° 0 mm 4 mps 745 mmHg 70%
08:00 +34°C° 0 mm 4 mps 745 mmHg 68%
09:00 +36°C° 0 mm 4 mps 745 mmHg 62%
10:00 +37°C° 0 mm 4 mps 745 mmHg 55%
11:00 +38°C° 0 mm 4 mps 745 mmHg 48%
12:00 +41°C° 0 mm 4 mps 744 mmHg 43%
13:00 +42°C° 0 mm 4 mps 744 mmHg 39%
14:00 +43°C° 0 mm 4 mps 743 mmHg 34%
15:00 +44°C° 0 mm 4 mps 743 mmHg 33%
16:00 +45°C° 0 mm 5 mps 743 mmHg 32%
17:00 +45°C° 0 mm 5 mps 742 mmHg 30%
18:00 +42°C° 0 mm 6 mps 743 mmHg 37%
19:00 +41°C° 0 mm 7 mps 743 mmHg 44%
20:00 +39°C° 0 mm 7 mps 743 mmHg 51%
21:00 +38°C° 0 mm 7 mps 744 mmHg 55%
22:00 +36°C° 0 mm 7 mps 744 mmHg 59%
23:00 +36°C° 0 mm 6 mps 744 mmHg 62%

10 July, Friday

Time Temperature Precipitation Wind Pressure Humidity
00:00 +35°C° 0 mm 6 mps 744 mmHg 63%
01:00 +35°C° 0 mm 6 mps 743 mmHg 65%
02:00 +35°C° 0 mm 6 mps 743 mmHg 66%
03:00 +35°C° 0 mm 7 mps 743 mmHg 67%
04:00 +34°C° 0 mm 7 mps 743 mmHg 69%
05:00 +34°C° 0 mm 8 mps 742 mmHg 70%
06:00 +35°C° 0 mm 8 mps 743 mmHg 67%
07:00 +35°C° 0 mm 9 mps 743 mmHg 65%
08:00 +37°C° 0 mm 9 mps 743 mmHg 62%
09:00 +38°C° 0 mm 10 mps 743 mmHg 58%
10:00 +39°C° 0 mm 10 mps 743 mmHg 53%
11:00 +42°C° 0 mm 11 mps 743 mmHg 49%
12:00 +42°C° 0 mm 11 mps 743 mmHg 47%
13:00 +43°C° 0 mm 11 mps 742 mmHg 44%
14:00 +44°C° 0 mm 11 mps 742 mmHg 42%
15:00 +43°C° 0 mm 11 mps 741 mmHg 44%
16:00 +42°C° 0 mm 11 mps 741 mmHg 46%
17:00 +41°C° 0 mm 12 mps 741 mmHg 47%
18:00 +39°C° 0 mm 11 mps 741 mmHg 52%
19:00 +38°C° 0 mm 11 mps 742 mmHg 56%
20:00 +36°C° 0 mm 11 mps 742 mmHg 61%
21:00 +36°C° 0 mm 11 mps 743 mmHg 63%
22:00 +36°C° 0 mm 11 mps 743 mmHg 65%
23:00 +34°C° 0 mm 11 mps 743 mmHg 67%

11 July, Saturday

Time Temperature Precipitation Wind Pressure Humidity
00:00 +34°C° 0 mm 11 mps 743 mmHg 67%
01:00 +34°C° 0 mm 11 mps 742 mmHg 67%
02:00 +34°C° 0 mm 11 mps 742 mmHg 67%
03:00 +34°C° 0 mm 11 mps 742 mmHg 67%
04:00 +34°C° 0 mm 11 mps 741 mmHg 67%
05:00 +34°C° 0 mm 11 mps 741 mmHg 67%
06:00 +34°C° 0 mm 11 mps 741 mmHg 65%
07:00 +34°C° 0 mm 12 mps 741 mmHg 63%
08:00 +36°C° 0 mm 12 mps 741 mmHg 61%
09:00 +37°C° 0 mm 12 mps 741 mmHg 57%
10:00 +38°C° 0 mm 12 mps 742 mmHg 53%
11:00 +39°C° 0 mm 13 mps 742 mmHg 49%
12:00 +41°C° 0 mm 12 mps 741 mmHg 47%
13:00 +42°C° 0 mm 12 mps 741 mmHg 45%
14:00 +42°C° 0 mm 12 mps 740 mmHg 43%
15:00 +42°C° 0 mm 12 mps 740 mmHg 45%
16:00 +41°C° 0 mm 12 mps 740 mmHg 47%
17:00 +41°C° 0 mm 12 mps 740 mmHg 49%
18:00 +38°C° 0 mm 12 mps 740 mmHg 54%
19:00 +37°C° 0 mm 11 mps 741 mmHg 59%
20:00 +34°C° 0 mm 11 mps 741 mmHg 65%
21:00 +34°C° 0 mm 11 mps 742 mmHg 65%
22:00 +34°C° 0 mm 11 mps 742 mmHg 65%
23:00 +34°C° 0 mm 11 mps 742 mmHg 66%

12 July, Sunday

Time Temperature Precipitation Wind Pressure Humidity
00:00 +34°C° 0 mm 11 mps 742 mmHg 65%
01:00 +34°C° 0 mm 11 mps 742 mmHg 65%
02:00 +34°C° 0 mm 11 mps 742 mmHg 65%
03:00 +33°C° 0 mm 11 mps 741 mmHg 66%
04:00 +33°C° 0 mm 10 mps 741 mmHg 67%
05:00 +33°C° 0 mm 10 mps 741 mmHg 68%
06:00 +34°C° 0 mm 10 mps 741 mmHg 66%
07:00 +34°C° 0 mm 11 mps 742 mmHg 64%
08:00 +36°C° 0 mm 11 mps 742 mmHg 62%
09:00 +37°C° 0 mm 11 mps 742 mmHg 57%
10:00 +38°C° 0 mm 11 mps 742 mmHg 53%
11:00 +39°C° 0 mm 11 mps 742 mmHg 49%
12:00 +41°C° 0 mm 11 mps 742 mmHg 47%
13:00 +42°C° 0 mm 11 mps 742 mmHg 45%
14:00 +42°C° 0 mm 11 mps 742 mmHg 43%
15:00 +42°C° 0 mm 11 mps 742 mmHg 44%
16:00 +41°C° 0 mm 11 mps 742 mmHg 45%
17:00 +41°C° 0 mm 11 mps 741 mmHg 47%
18:00 +38°C° 0 mm 10 mps 742 mmHg 51%
19:00 +37°C° 0 mm 10 mps 742 mmHg 56%
20:00 +36°C° 0 mm 10 mps 743 mmHg 61%
21:00 +34°C° 0 mm 10 mps 743 mmHg 63%
22:00 +34°C° 0 mm 10 mps 744 mmHg 65%
23:00 +34°C° 0 mm 9 mps 744 mmHg 67%
Show more